Content
SEND FEEDBACK

Daily
Averages
Monthly
Summary
South Korea

CH'ONGP'YONG, SOUTH KOREA


Home > Asia > South Korea
Elevation: 174 feet     Latitude: 37 45N     Longitude: 127 03E

WEATHER
 
SELECT A DAY
Number of Records: 194,059;   Date Range: 7/1/96 - 7/28/14
 
SHARE

PRINT THIS DATA

[ ← Previous Day ]
WEATHER ALMANAC - JANUARY 31, 2013
[ Next Day → ]
[ °C ]   °F
Weather ElementAverageHighLow
Temperature43.4 °F51.8 °F (3:00 pm)32 °F (6:00 am)
Dewpoint31.5 °F33.8 °F (10:00 am)26.6 °F (6:00 am)
Humidity64.9 %87 % (5:00 am)47 % (3:00 pm)
Barometer30.40 in30.45 in (3:00 am)30.27 in (11:00 pm)
Wind Speed4.9 mph8.1 mph (3:00 pm)
Weather ElementAverage
Visibility3.1 mi
Wind DirectionSE (135.4 °)

Weather ElementTotal
Precipitation---
Heating Degree Days23.1 (Base 65)
Averaged from 24 records on January 31, 2013
WEATHER CONDITIONS BREAKOUT
WIND DIRECTION BREAKOUT
WEATHER BY HOUR - JANUARY 31, 2013
[ °C ]   °F
Local TimeTemperatureDewpointHumidityBarometerVisibilityWind DirectionWind SpeedGust SpeedPrecipitationEventsConditions
1:00 AM37.4 °F32.0 °F81 %30.42 in1.6 miSouth (180°)3.5 mphMostly Cloudy
2:00 AM39.2 °F32.0 °F75 %30.42 in1.7 miWest (260°)2.3 mphMostly Cloudy
3:00 AM39.2 °F32.0 °F75 %30.45 inWSW (250°)3.5 mphMostly Cloudy
4:00 AM39.2 °F32.0 °F75 %30.42 in2.2 miNNW (330°)3.5 mphScattered Clouds
5:00 AM33.8 °F30.2 °F87 %30.42 in2.2 miSE (130°)2.3 mphPartly Cloudy
6:00 AM32.0 °F26.6 °F80 %30.42 inCalmScattered Clouds
6:14 AM33.8 °F30.2 °F87 %30.45 in1.4 miNNE (20°)3.5 mphScattered Clouds
7:00 AM32.0 °F28.4 °F87 %30.45 in1.1 miNNW (330°)3.5 mphScattered Clouds
8:00 AM32.0 °F28.4 °F87 %30.45 in1.4 miCalmPartly Cloudy
9:00 AM35.6 °F32.0 °F87 %30.45 in1.6 miSSW (200°)2.3 mphPartly Cloudy
10:00 AM44.6 °F33.8 °F66 %30.45 in2.2 miSSE (150°)5.8 mphMist
11:00 AM46.4 °F32.0 °F57 %30.45 inESE (110°)5.8 mphHaze
12:00 PM48.2 °F32.0 °F54 %30.45 inESE (110°)5.8 mphHaze
1:00 PM50.0 °F32.0 °F50 %30.42 in3.1 miESE (110°)5.8 mphHaze
2:00 PM50.0 °F33.8 °F54 %30.39 in3.7 miEast (90°)6.9 mph
3:00 PM51.8 °F32.0 °F47 %30.36 in5.0 miEast (100°)8.1 mphScattered Clouds
4:00 PM51.8 °F32.0 °F47 %30.36 in5.0 miEast (100°)6.9 mphScattered Clouds
5:00 PM50.0 °F32.0 °F50 %30.36 in5.0 miEast (90°)6.9 mphScattered Clouds
6:00 PM50.0 °F32.0 °F50 %30.33 in5.0 miEast (90°)8.1 mphMostly Cloudy
7:00 PM50.0 °F32.0 °F50 %30.36 in4.3 miESE (110°)5.8 mphMostly Cloudy
8:00 PM50.0 °F32.0 °F50 %30.33 in3.7 miESE (110°)6.9 mphMostly Cloudy
9:00 PM50.0 °F32.0 °F50 %30.30 in3.7 miENE (70°)6.9 mphMostly Cloudy
10:00 PM48.2 °F32.0 °F54 %30.30 in3.7 miSouth (180°)8.1 mphOvercast
11:00 PM46.4 °F32.0 °F57 %30.27 in3.7 miSE (130°)5.8 mphOvercast
Hourly data recorded from RKSS, located miles away from Ch'ongp'yong, South Korea







STORIES FROM OUR PARTNERS